Tracking 17560 objects as of 11-February-2016
HD Live streaming from Space Station
objects crossing your sky now

ACRIMSAT

Track ACRIMSAT now!
10-day predictions
ACRIMSAT is classified as:


NORAD ID: 26033
Int'l Code: 1999-070B
Perigee: 673.0 km
Apogee: 714.5 km
Inclination: 97.9 °
Period: 98.5 minutes
Semi major axis: 7064 km
RCS: 0.514 m2 (medium)
Launch date: December 21, 1999
Source: United States (US)
Launch site: AIR FORCE WESTERN TEST RANGE (AFWTR)

Monitor total solar irradiance (TSI) with maximum precision; ascertain the extent of solar radiation variability.
Your satellite tracking list
Your tracking list is empty





NASA's NSSDC Master Catalog

Two Line Element Set (TLE):
1 26033U 99070B   16042.02182983  .00000255  00000-0  59503-4 0  9993
2 26033  97.8649 198.9764 0029380  97.3536 263.1006 14.6202264886342
Source of the keplerian elements: AFSPC

N2YO: 418